Flag for Germany Weather past 2 weeks in Falkensee, Brandenburg, Germany

Now
57 °F

Clear.


Feels Like: 55 °F
Forecast: 45 / 67 °F
Wind: 10 mph from Southwest

Location: Berlin-Tegel

Current Time: May 30, 2015 at 5:03:58 AM

Latest Report: May 30, 2015 at 4:20 AM


Visibility: 10 mi

Pressure: 29.71 "Hg

Humidity: 67%

Dew point: 46 °F

Location of FalkenseeLocation

Historic Weather in Falkensee — Graph

°F

Falkensee temperature yesterday

Maximum temperature yesterday: 68 °F (at 5:20 PM)
Minimum temperature yesterday: 50 °F (at 1:50 AM)
Average temperature yesterday: 59 °F

Past Weeks' High & Low Weather Summary

 TemperatureHumidityPressure
High73 °F (May 25, 2:20 PM)100% (May 15, 6:20 AM)30.30 "Hg (May 15, 6:20 AM)
Low37 °F (May 15, 5:50 AM)18% (May 24, 5:50 PM)29.56 "Hg (May 19, 3:50 AM)
Average56 °F61%30.01 "Hg
* Reported May 15 3:20 AM — May 30 3:50 AM, Falkensee, Weather by CustomWeather, © 2015

Note: Actual official high and low records may vary slightly from our data, if they occured in-between our weather recording intervals... More about our weather records

Advertising

Falkensee weather history for previous 24 hours

 ConditionsComfort  
Time TempWeatherWind HumidityBarometerVisibility
3:50 AM
Sat, May 30
57 °FClear.12 mph67%29.71 "Hg10 mi
3:20 AM57 °FClear.10 mph67%29.71 "Hg10 mi
2:50 AM57 °FClear.10 mph67%29.71 "Hg10 mi
2:20 AM57 °FClear.7 mph67%29.71 "Hg10 mi
1:50 AM59 °FPassing clouds.8 mph63%29.71 "HgN/A
1:20 AM59 °FClear.6 mph63%29.71 "Hg10 mi
12:50 AM59 °FLight rain. Clear.7 mph63%29.71 "HgN/A
12:20 AM61 °FClear.9 mph52%29.71 "Hg10 mi
11:50 PM
Fri, May 29
61 °FClear.7 mph52%29.71 "Hg10 mi
11:20 PM63 °FClear.7 mph45%29.71 "Hg10 mi
10:20 PM64 °FLight rain. Clear.7 mph40%29.71 "HgN/A
9:50 PM64 °FLight rain. Clear.7 mph37%29.74 "HgN/A
9:20 PM66 °FSunny.9 mph35%29.74 "Hg10 mi
8:50 PM66 °FSunny.10 mph35%29.74 "Hg10 mi
8:20 PM66 °FSunny.6 mph43%29.71 "Hg10 mi
7:50 PM66 °FLight rain. Clear.7 mph43%29.74 "HgN/A
7:20 PM66 °FSunny.7 mph43%29.74 "Hg10 mi
6:50 PM66 °FPartly sunny.9 mph40%29.74 "HgN/A
6:20 PM66 °FPartly sunny.9 mph40%29.74 "HgN/A
5:50 PM66 °FScattered clouds.9 mph43%29.77 "HgN/A
5:20 PM68 °FPartly sunny.12 mph38%29.77 "HgN/A
4:50 PM66 °FPartly sunny.5 mph40%29.77 "HgN/A
4:20 PM66 °FPartly sunny.9 mph40%29.80 "HgN/A
3:50 PM66 °FBroken clouds.7 mph40%29.80 "HgN/A
3:20 PM64 °FBroken clouds.6 mph43%29.83 "HgN/A
2:50 PM64 °FBroken clouds.8 mph40%29.83 "HgN/A
2:20 PM63 °FBroken clouds.5 mph37%29.86 "HgN/A
1:50 PM63 °FBroken clouds.7 mph39%29.86 "HgN/A
1:20 PM64 °FMore clouds than sun.8 mph37%29.86 "HgN/A
12:50 PM63 °FBroken clouds.5 mph37%29.89 "HgN/A
12:20 PM63 °FPartly sunny.5 mph37%29.89 "HgN/A
11:50 AM61 °FPartly sunny.6 mph39%29.89 "HgN/A
11:20 AM59 °FBroken clouds.8 mph45%29.92 "HgN/A
10:50 AM57 °FBroken clouds.2 mph51%29.92 "HgN/A
10:20 AM57 °FScattered clouds.2 mph55%29.92 "HgN/A
9:50 AM55 °FScattered clouds.3 mph59%29.95 "HgN/A
9:20 AM55 °FScattered clouds.5 mph59%29.95 "HgN/A
8:50 AM55 °FScattered clouds.1 mph67%29.95 "HgN/A
8:20 AM54 °FScattered clouds.2 mph77%29.95 "HgN/A
7:50 AM52 °FScattered clouds.2 mph82%29.95 "HgN/A
7:20 AM50 °FPartly sunny.2 mph88%29.92 "HgN/A
6:50 AM50 °FLight rain. Partly sunny.3 mph88%29.92 "HgN/A
6:20 AM50 °FLight rain. Partly sunny.5 mph94%29.92 "HgN/A
5:20 AM52 °FSprinkles. Partly cloudy.7 mph88%29.92 "HgN/A
Weather by CustomWeather, © 2015

See weather overviewHow to use our weather pages